UAL103 MMMY-KIAH

Flight info

Callsign UAL103
Flight time 0h 58m
Altitude 41000
Route OVEMA1B OVEMA J29 CRP HTOWN3
Aircraft A359/H-SDE2E3GHIJ3J4J5LM1ORWXY/LB1D1

Departure

Time 2026-04-20 01:39
Airport Monterrey International Airport (MMMY)

Arrival

Time 2026-04-20 02:38
Airport George Bush Intercontinental Airport (KIAH)
Time Latitude Longitude Altitude Speed Heading
2026-04-20 01:01 25.77825 -100.11233 1337 ft 0 kts 211°
2026-04-20 01:29 25.77845 -100.11219 1344 ft 4 kts 211°
2026-04-20 01:29 25.77868 -100.11204 1340 ft 4 kts 198°
2026-04-20 01:29 25.77894 -100.11201 1347 ft 4 kts 164°
2026-04-20 01:29 25.77916 -100.11215 1344 ft 4 kts 128°
2026-04-20 01:30 25.77923 -100.11226 1343 ft 1 kts 121°
2026-04-20 01:30 25.77924 -100.11227 1343 ft 0 kts 121°
2026-04-20 01:33 25.77919 -100.11219 1345 ft 3 kts 122°
2026-04-20 01:33 25.77893 -100.11178 1344 ft 10 kts 124°
2026-04-20 01:34 25.77854 -100.11105 1337 ft 12 kts 117°
2026-04-20 01:34 25.77803 -100.11006 1342 ft 17 kts 121°
2026-04-20 01:34 25.77732 -100.10875 1342 ft 22 kts 121°
2026-04-20 01:34 25.77644 -100.10713 1339 ft 26 kts 121°
2026-04-20 01:35 25.77546 -100.10533 1337 ft 18 kts 121°
2026-04-20 01:35 25.77482 -100.10418 1339 ft 19 kts 121°
2026-04-20 01:35 25.77409 -100.10284 1337 ft 22 kts 121°
2026-04-20 01:35 25.77327 -100.10133 1344 ft 24 kts 121°
2026-04-20 01:36 25.77237 -100.09968 1340 ft 26 kts 123°
2026-04-20 01:36 25.77138 -100.09797 1344 ft 27 kts 122°
2026-04-20 01:36 25.77038 -100.09615 1345 ft 28 kts 120°
2026-04-20 01:36 25.76940 -100.09426 1345 ft 29 kts 122°
2026-04-20 01:37 25.76888 -100.09335 1337 ft 0 kts 121°
2026-04-20 01:37 25.76878 -100.09316 1339 ft 0 kts 118°
2026-04-20 01:37 25.76877 -100.09313 1339 ft 0 kts 117°
2026-04-20 01:38 25.76877 -100.09299 1341 ft 5 kts 86°
2026-04-20 01:38 25.76931 -100.09236 1337 ft 18 kts 30°
2026-04-20 01:38 25.77031 -100.09212 1339 ft 14 kts 326°
2026-04-20 01:39 25.77107 -100.09336 1341 ft 25 kts 301°
2026-04-20 01:39 25.77319 -100.09725 1339 ft 108 kts 300°
2026-04-20 01:39 25.77863 -100.10710 1655 ft 174 kts 301°
2026-04-20 01:39 25.78559 -100.11943 2608 ft 208 kts 303°
2026-04-20 01:40 25.79412 -100.13441 3508 ft 246 kts 301°
2026-04-20 01:40 25.80286 -100.15100 4259 ft 256 kts 300°
2026-04-20 01:40 25.81206 -100.16870 4711 ft 272 kts 300°
2026-04-20 01:40 25.82165 -100.18696 5229 ft 282 kts 300°
2026-04-20 01:41 25.83172 -100.20597 5872 ft 288 kts 300°
2026-04-20 01:41 25.84182 -100.22494 6729 ft 285 kts 300°
2026-04-20 01:41 25.85281 -100.24339 7321 ft 289 kts 312°
2026-04-20 01:41 25.86912 -100.25631 7921 ft 292 kts 338°
2026-04-20 01:42 25.88906 -100.26019 8531 ft 292 kts
2026-04-20 01:42 25.90854 -100.25432 9090 ft 293 kts 31°
2026-04-20 01:42 25.92378 -100.23967 9655 ft 291 kts 57°
2026-04-20 01:42 25.93204 -100.21939 10195 ft 291 kts 79°
2026-04-20 01:43 25.93738 -100.19707 10439 ft 308 kts 73°
2026-04-20 01:43 25.94469 -100.17410 10674 ft 323 kts 73°
2026-04-20 01:43 25.95117 -100.14976 10966 ft 333 kts 79°
2026-04-20 01:43 25.95511 -100.12419 11376 ft 338 kts 86°
2026-04-20 01:44 25.95605 -100.09797 11814 ft 341 kts 94°
2026-04-20 01:44 25.95387 -100.07156 12274 ft 345 kts 101°
2026-04-20 01:44 25.94852 -100.04545 12711 ft 348 kts 108°
2026-04-20 01:44 25.94004 -100.02013 13148 ft 352 kts 116°
2026-04-20 01:45 25.92919 -99.99560 13577 ft 356 kts 116°
2026-04-20 01:45 25.92168 -99.96919 14005 ft 363 kts 99°
2026-04-20 01:45 25.92211 -99.94106 14404 ft 368 kts 79°
2026-04-20 01:45 25.93110 -99.91442 14823 ft 371 kts 59°
2026-04-20 01:46 25.94660 -99.89186 15248 ft 373 kts 47°
2026-04-20 01:46 25.96420 -99.87055 15705 ft 376 kts 46°
2026-04-20 01:46 25.98203 -99.84922 16152 ft 378 kts 46°
2026-04-20 01:46 25.99996 -99.82765 16599 ft 380 kts 46°
2026-04-20 01:47 26.01802 -99.80594 17046 ft 383 kts 46°
2026-04-20 01:47 26.03612 -99.78403 17493 ft 385 kts 46°
2026-04-20 01:47 26.05427 -99.76195 17939 ft 388 kts 46°
2026-04-20 01:47 26.07249 -99.73973 18376 ft 390 kts 46°
2026-04-20 01:48 26.09083 -99.71733 18776 ft 393 kts 46°
2026-04-20 01:48 26.10930 -99.69476 19137 ft 396 kts 45°
2026-04-20 01:48 26.12794 -99.67199 19476 ft 399 kts 45°
2026-04-20 01:48 26.14670 -99.64906 19840 ft 402 kts 45°
2026-04-20 01:49 26.16538 -99.62622 20191 ft 405 kts 45°
2026-04-20 01:49 26.18439 -99.60296 20555 ft 407 kts 45°
2026-04-20 01:49 26.20352 -99.57956 20912 ft 410 kts 45°
2026-04-20 01:49 26.22281 -99.55595 21265 ft 413 kts 45°
2026-04-20 01:50 26.24222 -99.53217 21607 ft 416 kts 45°
2026-04-20 01:50 26.26176 -99.50823 21916 ft 420 kts 45°
2026-04-20 01:50 26.28149 -99.48403 22211 ft 424 kts 45°
2026-04-20 01:50 26.30142 -99.45957 22567 ft 427 kts 45°
2026-04-20 01:51 26.32141 -99.43502 22939 ft 428 kts 45°
2026-04-20 01:51 26.34147 -99.41038 23279 ft 431 kts 45°
2026-04-20 01:51 26.36170 -99.38550 23597 ft 434 kts 45°
2026-04-20 01:51 26.38206 -99.36046 23920 ft 437 kts 45°
2026-04-20 01:52 26.40258 -99.33522 24189 ft 440 kts 45°
2026-04-20 01:52 26.42318 -99.30987 24452 ft 443 kts 45°
2026-04-20 01:52 26.44393 -99.28431 24736 ft 446 kts 45°
2026-04-20 01:52 26.46516 -99.25898 25003 ft 448 kts 43°
2026-04-20 01:53 26.48705 -99.23397 25277 ft 451 kts 42°
2026-04-20 01:53 26.50926 -99.20901 25563 ft 454 kts 42°
2026-04-20 01:53 26.53129 -99.18432 25838 ft 457 kts 42°
2026-04-20 01:53 26.55370 -99.15899 26117 ft 460 kts 43°
2026-04-20 01:54 26.57544 -99.13243 26396 ft 464 kts 46°
2026-04-20 01:54 26.59694 -99.10527 26626 ft 469 kts 45°
2026-04-20 01:54 26.61868 -99.07788 26900 ft 471 kts 45°
2026-04-20 01:54 26.64049 -99.05049 27254 ft 473 kts 45°
2026-04-20 01:55 26.66248 -99.02295 27553 ft 476 kts 45°
2026-04-20 01:55 26.68466 -98.99521 27837 ft 480 kts 45°
2026-04-20 01:55 26.70698 -98.96729 28144 ft 483 kts 45°
2026-04-20 01:55 26.72946 -98.93917 28448 ft 487 kts 45°
2026-04-20 01:56 26.75184 -98.91116 28760 ft 490 kts 45°
2026-04-20 01:56 26.77493 -98.88226 29074 ft 494 kts 45°
2026-04-20 01:56 26.79764 -98.85381 29386 ft 497 kts 44°
2026-04-20 01:56 26.82076 -98.82483 29719 ft 501 kts 44°
2026-04-20 01:57 26.84405 -98.79562 30022 ft 505 kts 44°
2026-04-20 01:57 26.86752 -98.76617 30335 ft 508 kts 44°
2026-04-20 01:57 26.89115 -98.73648 30627 ft 511 kts 45°
2026-04-20 01:57 26.91486 -98.70667 30982 ft 513 kts 44°
2026-04-20 01:58 26.93852 -98.67689 31491 ft 511 kts 44°
2026-04-20 01:58 26.96224 -98.64704 31790 ft 515 kts 45°
2026-04-20 01:58 26.98620 -98.61689 32058 ft 519 kts 45°
2026-04-20 01:58 27.01026 -98.58657 32342 ft 523 kts 45°
2026-04-20 01:59 27.03451 -98.55598 32633 ft 526 kts 45°
2026-04-20 01:59 27.05894 -98.52515 32920 ft 529 kts 45°
2026-04-20 01:59 27.08351 -98.49412 33206 ft 533 kts 45°
2026-04-20 01:59 27.10817 -98.46295 33508 ft 536 kts 45°
2026-04-20 02:00 27.13306 -98.43148 33773 ft 540 kts 45°
2026-04-20 02:00 27.15800 -98.39990 34050 ft 543 kts 45°
2026-04-20 02:00 27.18315 -98.36805 34317 ft 546 kts 45°
2026-04-20 02:00 27.20844 -98.33599 34578 ft 549 kts 45°
2026-04-20 02:01 27.23372 -98.30391 34916 ft 549 kts 44°
2026-04-20 02:01 27.25909 -98.27172 35200 ft 551 kts 44°
2026-04-20 02:01 27.28417 -98.23985 35521 ft 551 kts 44°
2026-04-20 02:01 27.30956 -98.20757 35913 ft 550 kts 44°
2026-04-20 02:02 27.33493 -98.17527 36275 ft 550 kts 44°
2026-04-20 02:02 27.36028 -98.14299 36640 ft 550 kts 44°
2026-04-20 02:02 27.38559 -98.11074 37001 ft 550 kts 44°
2026-04-20 02:02 27.41098 -98.07836 37374 ft 550 kts 44°
2026-04-20 02:03 27.43626 -98.04610 37762 ft 550 kts 44°
2026-04-20 02:03 27.46159 -98.01375 38138 ft 550 kts 44°
2026-04-20 02:03 27.48685 -97.98146 38509 ft 550 kts 43°
2026-04-20 02:03 27.51215 -97.94908 38902 ft 549 kts 43°
2026-04-20 02:04 27.53730 -97.91687 39264 ft 546 kts 43°
2026-04-20 02:04 27.56235 -97.88477 39680 ft 542 kts 43°
2026-04-20 02:04 27.58681 -97.85341 40113 ft 538 kts 43°
2026-04-20 02:04 27.61141 -97.82184 40512 ft 534 kts 43°
2026-04-20 02:05 27.63591 -97.79039 40868 ft 531 kts 43°
2026-04-20 02:05 27.66026 -97.75911 41180 ft 530 kts 43°
2026-04-20 02:05 27.70929 -97.69613 41268 ft 539 kts 43°
2026-04-20 02:06 27.75906 -97.63204 41265 ft 544 kts 43°
2026-04-20 02:06 27.80885 -97.56778 41265 ft 543 kts 43°
2026-04-20 02:07 27.85836 -97.50380 41261 ft 543 kts 43°
2026-04-20 02:07 27.90952 -97.44096 41236 ft 538 kts 34°
2026-04-20 02:08 27.96738 -97.38788 41220 ft 535 kts 31°
2026-04-20 02:08 28.02582 -97.33575 41228 ft 535 kts 31°
2026-04-20 02:09 28.08425 -97.28343 41245 ft 535 kts 31°
2026-04-20 02:09 28.14258 -97.23108 41218 ft 535 kts 31°
2026-04-20 02:10 28.20055 -97.17897 40912 ft 534 kts 31°
2026-04-20 02:10 28.22960 -97.15282 40275 ft 534 kts 31°
2026-04-20 02:10 28.25870 -97.12662 39675 ft 535 kts 31°
2026-04-20 02:11 28.28786 -97.10035 39045 ft 536 kts 31°
2026-04-20 02:11 28.31716 -97.07394 38314 ft 538 kts 31°
2026-04-20 02:11 28.34648 -97.04749 37649 ft 538 kts 31°
2026-04-20 02:11 28.37576 -97.02104 36975 ft 538 kts 32°
2026-04-20 02:12 28.40512 -96.99451 36292 ft 539 kts 32°
2026-04-20 02:12 28.43441 -96.96802 35586 ft 539 kts 32°
2026-04-20 02:12 28.46381 -96.94142 34791 ft 542 kts 32°
2026-04-20 02:12 28.49334 -96.91470 34189 ft 540 kts 32°
2026-04-20 02:13 28.52260 -96.88814 33551 ft 536 kts 32°
2026-04-20 02:13 28.54185 -96.87066 33164 ft 533 kts 33°
2026-04-20 02:13 28.58005 -96.83594 32421 ft 527 kts 33°
2026-04-20 02:13 28.60866 -96.80992 31856 ft 523 kts 33°
2026-04-20 02:14 28.63695 -96.78420 31306 ft 518 kts 33°
2026-04-20 02:14 28.66497 -96.75871 30742 ft 514 kts 33°
2026-04-20 02:14 28.68341 -96.74192 30370 ft 511 kts 33°
2026-04-20 02:14 28.72034 -96.70835 29570 ft 504 kts 34°
2026-04-20 02:15 28.74761 -96.68344 29006 ft 498 kts 34°
2026-04-20 02:15 28.77448 -96.65887 28461 ft 493 kts 34°
2026-04-20 02:15 28.80107 -96.63459 27936 ft 487 kts 34°
2026-04-20 02:15 28.81920 -96.61979 27557 ft 479 kts 26°
2026-04-20 02:16 28.84881 -96.60376 27011 ft 466 kts 15°
2026-04-20 02:16 28.87897 -96.59084 26481 ft 461 kts 14°
2026-04-20 02:16 28.90896 -96.57833 25952 ft 456 kts 14°
2026-04-20 02:16 28.93864 -96.56591 25419 ft 452 kts 15°
2026-04-20 02:17 28.96802 -96.55354 24882 ft 448 kts 15°
2026-04-20 02:17 28.99714 -96.54123 24357 ft 445 kts 15°
2026-04-20 02:17 29.02601 -96.52899 23816 ft 441 kts 15°
2026-04-20 02:17 29.05474 -96.51680 23211 ft 437 kts 15°
2026-04-20 02:18 29.08305 -96.50475 22672 ft 431 kts 15°
2026-04-20 02:18 29.11101 -96.49285 22141 ft 426 kts 16°
2026-04-20 02:18 29.13862 -96.48109 21604 ft 420 kts 16°
2026-04-20 02:18 29.16128 -96.47143 21181 ft 416 kts 16°
2026-04-20 02:19 29.18899 -96.45960 20515 ft 414 kts 15°
2026-04-20 02:19 29.21602 -96.44808 19838 ft 413 kts 15°
2026-04-20 02:19 29.24285 -96.43664 19273 ft 410 kts 15°
2026-04-20 02:19 29.26943 -96.42529 18747 ft 405 kts 15°
2026-04-20 02:20 29.29571 -96.41390 18136 ft 403 kts 17°
2026-04-20 02:20 29.32113 -96.40065 17561 ft 400 kts 21°
2026-04-20 02:20 29.34592 -96.38671 17009 ft 394 kts 22°
2026-04-20 02:20 29.37034 -96.37288 16479 ft 388 kts 22°
2026-04-20 02:21 29.41806 -96.34590 15407 ft 376 kts 22°
2026-04-20 02:21 29.44137 -96.33273 14879 ft 371 kts 23°
2026-04-20 02:21 29.46356 -96.31786 14347 ft 369 kts 34°
2026-04-20 02:22 29.48124 -96.29686 14028 ft 362 kts 48°
2026-04-20 02:22 29.49638 -96.27443 13834 ft 348 kts 50°
2026-04-20 02:22 29.51068 -96.25281 13680 ft 332 kts 50°
2026-04-20 02:22 29.52438 -96.23215 13526 ft 318 kts 49°
2026-04-20 02:23 29.53767 -96.21221 13265 ft 311 kts 50°
2026-04-20 02:23 29.55170 -96.19360 12859 ft 305 kts 42°
2026-04-20 02:23 29.56687 -96.17680 12511 ft 303 kts 41°
2026-04-20 02:23 29.58229 -96.16023 12152 ft 303 kts 41°
2026-04-20 02:24 29.59767 -96.14368 11799 ft 302 kts 41°
2026-04-20 02:24 29.61296 -96.12721 11443 ft 302 kts 42°
2026-04-20 02:24 29.62809 -96.11087 11093 ft 301 kts 42°
2026-04-20 02:24 29.64335 -96.09438 10740 ft 300 kts 43°
2026-04-20 02:25 29.65855 -96.07793 10392 ft 300 kts 43°
2026-04-20 02:25 29.67359 -96.06164 10145 ft 293 kts 43°
2026-04-20 02:25 29.68825 -96.04575 9901 ft 287 kts 43°
2026-04-20 02:25 29.70277 -96.03001 9607 ft 285 kts 43°
2026-04-20 02:26 29.71726 -96.01468 9275 ft 282 kts 39°
2026-04-20 02:26 29.73291 -96.00132 8889 ft 280 kts 34°
2026-04-20 02:26 29.74900 -95.98878 8617 ft 279 kts 33°
2026-04-20 02:26 29.76512 -95.97630 8400 ft 279 kts 33°
2026-04-20 02:27 29.78125 -95.96378 8182 ft 278 kts 34°
2026-04-20 02:27 29.79727 -95.95132 7973 ft 277 kts 34°
2026-04-20 02:27 29.81272 -95.93928 7828 ft 267 kts 34°
2026-04-20 02:27 29.82798 -95.92736 7661 ft 256 kts 34°
2026-04-20 02:28 29.84233 -95.91616 7459 ft 249 kts 34°
2026-04-20 02:28 29.85650 -95.90509 7239 ft 244 kts 34°
2026-04-20 02:28 29.87045 -95.89420 7070 ft 239 kts 34°
2026-04-20 02:28 29.88424 -95.88347 7030 ft 239 kts 34°
2026-04-20 02:29 29.89803 -95.87267 7024 ft 239 kts 34°
2026-04-20 02:29 29.91175 -95.86190 7016 ft 239 kts 34°
2026-04-20 02:29 29.92549 -95.85113 7010 ft 239 kts 34°
2026-04-20 02:29 29.93926 -95.84034 7000 ft 239 kts 34°
2026-04-20 02:30 29.95282 -95.82971 6990 ft 239 kts 34°
2026-04-20 02:30 29.96654 -95.81892 6984 ft 239 kts 35°
2026-04-20 02:30 29.97842 -95.80572 6968 ft 238 kts 58°
2026-04-20 02:30 29.98544 -95.78854 6970 ft 237 kts 70°
2026-04-20 02:31 29.99057 -95.77050 6987 ft 236 kts 77°
2026-04-20 02:31 29.99312 -95.75185 6984 ft 235 kts 86°
2026-04-20 02:31 29.99367 -95.73305 6958 ft 235 kts 91°
2026-04-20 02:31 29.99353 -95.71416 6658 ft 237 kts 92°
2026-04-20 02:32 29.99338 -95.69490 6138 ft 244 kts 91°
2026-04-20 02:32 29.99343 -95.67506 5596 ft 250 kts 91°
2026-04-20 02:32 29.99347 -95.65494 5126 ft 252 kts 91°
2026-04-20 02:32 29.99344 -95.63479 4748 ft 250 kts 91°
2026-04-20 02:33 29.99344 -95.61489 4409 ft 246 kts 90°
2026-04-20 02:33 29.99344 -95.59539 4102 ft 240 kts 90°
2026-04-20 02:33 29.99344 -95.57634 3812 ft 234 kts 90°
2026-04-20 02:33 29.99344 -95.55815 3521 ft 218 kts 90°
2026-04-20 02:34 29.99343 -95.54128 3246 ft 203 kts 90°
2026-04-20 02:34 29.99342 -95.52549 2980 ft 190 kts 89°
2026-04-20 02:34 29.99343 -95.51079 2750 ft 176 kts 89°
2026-04-20 02:34 29.99343 -95.49722 2528 ft 163 kts 89°
2026-04-20 02:35 29.99343 -95.48448 2311 ft 155 kts 89°
2026-04-20 02:35 29.99343 -95.47222 2097 ft 152 kts 89°
2026-04-20 02:35 29.99344 -95.46035 1887 ft 147 kts 89°
2026-04-20 02:35 29.99344 -95.44867 1705 ft 144 kts 89°
2026-04-20 02:36 29.99343 -95.43727 1504 ft 139 kts 89°
2026-04-20 02:36 29.99343 -95.42654 1323 ft 128 kts 89°
2026-04-20 02:36 29.99343 -95.41670 1163 ft 119 kts 89°
2026-04-20 02:36 29.99344 -95.40715 1010 ft 119 kts 89°
2026-04-20 02:37 29.99344 -95.39754 850 ft 122 kts 90°
2026-04-20 02:37 29.99344 -95.38766 693 ft 125 kts 89°
2026-04-20 02:37 29.99351 -95.37761 554 ft 126 kts 90°
2026-04-20 02:37 29.99355 -95.36742 354 ft 127 kts 91°
2026-04-20 02:38 29.99353 -95.35715 201 ft 128 kts 96°
2026-04-20 02:38 29.99334 -95.34721 110 ft 113 kts 92°
2026-04-20 02:38 29.99339 -95.34149 111 ft 28 kts 91°
2026-04-20 02:38 29.99333 -95.34072 109 ft 14 kts 97°
2026-04-20 02:39 29.99293 -95.33917 110 ft 23 kts 115°
2026-04-20 02:39 29.99211 -95.33752 110 ft 25 kts 120°
2026-04-20 02:39 29.99153 -95.33689 113 ft 0 kts 171°
2026-04-20 02:39 29.99133 -95.33684 111 ft 6 kts 164°
2026-04-20 02:40 29.99088 -95.33644 110 ft 10 kts 123°
2026-04-20 02:40 29.99080 -95.33550 111 ft 14 kts 97°
2026-04-20 02:40 29.99003 -95.33479 111 ft 17 kts 173°
2026-04-20 02:40 29.98895 -95.33485 112 ft 0 kts 180°
2026-04-20 02:41 29.98885 -95.33485 112 ft 3 kts 180°